Tracking 29892 objects as of 21-Nov-2024
HD Live streaming from Space Station
objects crossing your sky now

STARLINK-3647

Track STARLINK-3647 now!
10-day predictions
STARLINK-3647 is classified as:


NORAD ID: 51994
Int'l Code: 2022-025AQ
Perigee: 545.8 km
Apogee: 548.0 km
Inclination: 53.2 °
Period: 95.4 minutes
Semi major axis: 6917 km
RCS: Unknown
Launch date: March 9, 2022
Source: United States (US)
Launch site: AIR FORCE EASTERN TEST RANGE (AFETR)
Your satellite tracking list
Your tracking list is empty




NASA's NSSDC Master Catalog

Two Line Element Set (TLE):
1 51994U 22025AQ  24324.52497108  .00002108  00000-0  15047-3 0  9991
2 51994  53.2163 352.2160 0001587  97.2299 262.8873 15.08845565149184
Source of the keplerian elements: AFSPC